Regional Weather Roundup
Issued by NWS Sioux Falls, SD

Home | Current Version | Previous Version | Graphics & Text | Print | Product List | Glossary Off
Versions: 1 2 3 4 5 6 7 8 9 10 11 12 13 14 15 16 17 18 19 20 21 22 23 24 25 26 27 28 29 30 31 32 33 34 35 36 37 38 39 40 41 42 43 44 45 46 47 48 49 50

000
ASUS43 KFSD 210002
RWRFSD

WEATHER ROUNDUP FOR SE SOUTH DAKOTA/SW MINNESOTA/NW IOWA
NATIONAL WEATHER SERVICE SIOUX FALLS SD
600 PM CST FRI JAN 20 2017

NOTE: "FAIR" INDICATES FEW OR NO CLOUDS BELOW 12,000 FEET WITH NO
SIGNIFICANT WEATHER AND OR OBSTRUCTIONS TO VISIBILITY.


SDZ038>040-050-052>070-210100-
SOUTHEAST SOUTH DAKOTA

CITY           SKY/WX    TMP DP  RH WIND       PRES   REMARKS
BROOKINGS      FOG       37  36  96 S9        29.41S VSB 1
CHAMBERLAIN    CLEAR     34  30  85 CALM      29.35R
6HR MIN TEMP:  32; 6HR MAX TEMP:  45;

HURON          CLEAR     38  34  85 E3        29.35S
6HR MIN TEMP:  37; 6HR MAX TEMP:  44;

MADISON        CLOUDY    37  37 100 S10         N/A
MITCHELL       MOCLDY    42  38  85 S13       29.38R
6HR MIN TEMP:  40; 6HR MAX TEMP:  49;

SIOUX FALLS    FOG       39  39 100 SE12      29.44R VSB 1/2
6HR MIN TEMP:  39; 6HR MAX TEMP:  40;

WINNER         FAIR      35  28  75 SW5       29.34R
YANKTON        CLOUDY    41  37  87 SE12      29.42R
$$

MNZ071-072-080-081-089-090-097-098-210100-
SOUTHWEST MINNESOTA

CITY           SKY/WX    TMP DP  RH WIND       PRES   REMARKS
FAIRMONT       FOG       35  34  96 SE8       29.52R VSB 1/2 WCI  29
JACKSON        FOG       34  34 100 SE6       29.49R VSB 1/2 WCI  29
LUVERNE        FOG       36  36 100 SE8       29.46R VSB 3/4
MARSHALL       CLOUDY    37  36  96 SE12      29.47R FOG
6HR MIN TEMP:  37; 6HR MAX TEMP:  39;

MONTEVIDEO     CLOUDY    34  34 100 S12       29.50R FOG     WCI  25
PIPESTONE      SNOW      37  37 100 S10       29.43R VSB 1/4
REDWOOD FALLS  CLOUDY    36  34  92 SE9       29.50R FOG
TRACY          FOG       37  37  99 SE6       29.47S VSB 1/2
WINDOM         CLOUDY    36  36 100 SE6       29.48S FOG
WORTHINGTON    FOG       35  35 100 SE9       29.48R VSB 1/4 WCI  28
$$

IAZ001>003-012>014-020>022-031-032-NEZ013-014-SDZ071-210100-
NORTHWEST IOWA

CITY           SKY/WX    TMP DP  RH WIND       PRES   REMARKS
CHEROKEE       CLOUDY    38  38 100 S3        29.48R
DENISON        CLOUDY    39  39 100 E7        29.46R
ESTHERVILLE    FOG       34  34 100 SE8       29.49R VSB 1/2 WCI  27
LE MARS        CLOUDY    39  39 100 SE9       29.47S FOG
ORANGE CITY    DRIZZLE   37  37 100 SE5       29.47R
SHELDON        CLOUDY    37  37 100 SE10      29.46R
SIOUX CITY     FOG       41  40  96 SE7       29.46R VSB 3/4
6HR MIN TEMP:  41; 6HR MAX TEMP:  43;

SPENCER        CLOUDY    37  36  96 SE8       29.49R FOG
6HR MIN TEMP:  37; 6HR MAX TEMP:  39;

STORM LAKE     FOG       36  36 100 E7        29.48S VSB<1/4
$$

ABBREVIATIONS USED IN REMARKS
   TC - TEMPERATURE IN CELSIUS
  WCI - WIND CHILL INDEX
   HX - HEAT INDEX
  VSB - VISIBILITY





USA.gov is the U.S. government's official web portal to all federal, state and local government web resources and services.